Location: Bavegemberg
(50.9500°N, 3.8833°E)
Time: 07:12:17
(UTC+00:00)

FENGYUN 3A - Pass Details

Date: 23 May 2024
Orbit: 821 x 835 km, 98.6° (Epoch: 19 June)

Event Time Altitude Azimuth Distance (km) Brightness Sun altitude
Rises 02:14:07 0° 15° (NNE) 3,373 8.3 -10.9°
Reaches altitude 10° 02:16:29 10° 17° (NNE) 2,435 7.4 -10.7°
Maximum altitude 02:21:53 79° 104° (ESE) 844 3.8 -10.2°
Drops below altitude 10° 02:27:14 10° 192° (SSW) 2,414 5.5 -9.6°
Enters shadow 02:27:31 - 192° (SSW) 2,524 5.6 -9.6°
